Location: ????
(34.0362°N, 132.8408°E)
Time: 18:18:41
(UTC+00:00)

Daily predictions for brighter satellites

Satellite Brightness Start Highest point End
(mag) Time Altitude Azimuth Time Altitude Azimuth Time Altitude Azimuth
ATLAS 3B R/B 4.4 12:17:32 10° NW 12:22:40 26° WSW 12:22:40 26° WSW
USA 267 4.2 17:43:43 10° NE 17:48:13 41° E 17:48:13 41° E
COSMOS 2428 4.3 18:02:05 31° E 18:02:05 31° E 18:06:17 10° NE
Cosmos 2333 Rocket 3.4 18:10:25 40° ENE 18:10:25 40° ENE 18:14:25 10° NNE
ATLAS 2AS CENTAUR R/B 3.0 18:13:56 65° ENE 18:13:56 65° ENE 18:20:20 10° SE
Cosmos 2360 Rocket 4.1 18:17:26 21° N 18:17:26 21° N 18:19:19 10° N
BREEZE-M DEB (TANK) 4.3 18:24:32 43° N 18:24:32 43° N 18:27:33 10° NE
Cosmos 1844 Rocket 3.5 18:30:14 43° SE 18:30:14 43° SE 18:34:08 10° SSE
H-2A R/B 4.0 18:26:00 10° SE 18:29:48 29° ENE 18:33:40 10° N
IDEFIX/ARIANE 42P 4.3 18:25:09 10° N 18:27:05 23° N 18:27:05 23° N
BREEZE M DEB (TANK) 3.5 18:24:04 10° NW 18:37:18 81° NE 18:41:12 10° SE
CZ-2C R/B 3.7 18:32:55 10° NNE 18:37:49 41° E 18:39:53 28° SE
BREEZE-M DEB (TANK) 4.5 18:38:04 38° ESE 18:38:04 38° ESE 18:45:37 10° NE
Cosmos 2242 Rocket 4.4 18:47:10 48° ENE 18:47:10 48° ENE 18:50:54 10° NNE
Cosmos 2298 Rocket 4.2 18:49:26 10° NNW 18:54:44 70° ENE 18:59:59 10° SSE
Cosmos 1844 3.6 18:49:59 10° NNW 18:55:34 84° ENE 19:01:09 10° SSE
Cosmos 2219 Rocket 2.2 18:58:26 63° NW 18:58:26 63° NW 19:03:40 10° NNE
Okean 1-7 3.8 18:59:04 35° SE 19:00:25 49° E 19:04:31 10° NNE
ADEOS Rocket 4.0 18:56:10 10° SE 19:02:19 47° ENE 19:07:56 10° N
Landsat 5 3.7 18:59:31 10° SSE 19:04:00 77° ENE 19:08:24 10° N
PAYLOAD A 3.7 19:02:02 10° NNE 19:06:47 86° WNW 19:07:18 71° SSW
OAO 3 Rocket 3.0 19:08:08 80° NW 19:08:19 83° N 19:13:15 10° E
Meteor 1-19 Rocket 4.2 19:06:17 22° S 19:09:56 83° E 19:15:38 10° N
ERS-2 3.4 19:10:01 10° SE 19:13:27 40° ENE 19:16:53 10° N
Cosmos 1459 Rocket 3.9 19:07:36 10° NNW 19:13:29 55° W 19:19:22 10° SSW
Cosmos 1725 Rocket 4.0 19:07:23 10° N 19:13:35 78° E 19:19:46 10° S
CZ-4C R/B 3.5 19:06:57 10° NNW 19:14:30 65° ENE 19:22:56 10° SE
Cosmos 2061 Rocket 3.9 19:12:50 10° N 19:19:16 79° W 19:25:37 10° S
Meteor 1-18 Rocket 4.0 19:16:41 28° SSW 19:19:42 74° W 19:25:18 10° N
Cosmos 2150 Rocket 3.9 19:14:31 10° NNW 19:19:55 74° WSW 19:25:12 10° S
Meteor 2-20 Rocket 4.4 19:18:49 26° SSW 19:22:16 62° W 19:28:20 10° N
Cosmos 1703 Rocket 3.4 19:24:17 49° SSW 19:25:20 71° W 19:29:42 10° N
Cosmos 2100 Rocket 4.4 19:20:09 10° NNW 19:26:00 40° W 19:27:54 32° SW
Cosmos 2237 Rocket 2.5 19:20:44 10° S 19:26:19 68° ESE 19:31:55 10° NNE
Cosmos 1782 Rocket 4.4 19:24:24 10° N 19:28:45 51° E 19:33:03 10° SSE
Cosmos 1908 Rocket 3.4 19:24:43 10° N 19:29:12 78° W 19:33:39 10° S
Cosmos 1980 3.8 19:24:59 11° SSW 19:30:21 80° ESE 19:36:03 10° NNE
USA 267 3.8 19:26:53 10° NNE 19:32:53 41° NW 19:35:34 28° W
USA 276 4.3 19:34:50 17° S 19:34:50 17° S 19:35:48 10° SSE
Delta 2 Rocket 2.8 19:33:53 63° NW 19:34:13 68° N 19:37:33 10° E
Meteor 2-4 Rocket 3.6 19:29:18 10° S 19:34:43 81° E 19:40:05 10° N
Cosmos 2123 Rocket 4.2 19:33:00 21° SW 19:36:59 46° W 19:43:02 10° N
Aurora 2 Rocket 4.4 19:39:45 10° S 19:40:51 11° SSE 19:42:00 10° SE
Cosmos 1484 Rocket 3.0 19:37:27 10° NNE 19:41:28 72° ESE 19:45:25 10° S
ATLAS CENTAUR R/B 3.6 19:36:07 10° NNW 19:41:40 31° NNE 19:44:25 10° E
Cosmos 1802 Rocket 4.4 19:38:01 10° NNW 19:43:45 39° W 19:49:31 10° SSW
Hubble Space Telescope 1.6 19:42:54 30° SW 19:44:06 37° S 19:47:54 10° ESE
COSMOS 2428 3.6 19:44:10 27° W 19:45:26 30° WNW 19:50:25 10° N
Atlas Centaur 2 3.3 19:44:02 14° SSW 19:46:11 21° SSE 19:49:25 10° ESE
FENGYUN 3A 3.7 19:41:22 10° NNE 19:46:48 81° ESE 19:52:13 10° S
RESURS DK-1 3.5 19:43:31 10° N 19:47:33 46° ENE 19:51:32 10° SE
PSLV R/B 4.5 19:48:26 10° NNW 19:51:56 26° WNW 19:52:11 26° WNW
Yuri Rocket 4.0 19:50:43 23° SW 19:52:17 31° S 19:56:13 10° SE
Cosmos 2333 Rocket 3.5 19:52:28 20° WNW 19:53:23 20° WNW 19:57:36 10° N
CZ-4B R/B 4.2 19:51:01 10° NNE 19:55:32 85° ESE 20:00:00 10° S
Meteor 1-31 Rocket 2.7 19:52:27 10° NNE 19:56:21 86° ESE 20:00:14 10° SSW
Cosmos 773 Rocket 3.9 19:52:02 10° SSW 19:57:09 89° E 20:02:18 10° NNE
ADEOS 3.7 19:58:37 10° N 20:03:41 54° WNW 20:08:45 10° SSW
ATLAS 2AS CENTAUR R/B 3.8 20:01:41 17° W 20:03:48 20° WSW 20:08:20 10° SSW
USA 234 4.4 19:57:52 10° ESE 20:03:56 43° NE 20:10:02 10° NNW
H-2A R/B 3.3 20:02:20 10° SW 20:05:43 21° W 20:09:08 10° NW
Cosmos 1975 3.3 20:02:13 10° NNW 20:05:51 35° W 20:09:28 10° SSW
Cosmos 1844 Rocket 4.2 20:12:13 14° WSW 20:12:13 14° WSW 20:14:46 10° SW
COSMOS 2455 2.9 20:07:07 10° NNW 20:13:11 88° ENE 20:19:12 10° SSE
Cosmos 1271 Rocket 3.3 20:10:09 10° S 20:14:01 64° E 20:17:58 10° NNE
CZ-2C R/B 3.8 20:11:55 10° NNW 20:15:41 21° WNW 20:19:15 11° WSW
CZ-4B R/B 1.7 20:12:55 10° S 20:15:57 39° W 20:19:06 10° NNW
Cosmos 1300 Rocket 3.9 20:15:32 10° N 20:19:56 71° E 20:24:17 10° SSE
Lacrosse 5 4.4 20:20:09 10° N 20:22:57 15° NNE 20:25:45 10° ENE
Cosmos 1242 Rocket 3.5 20:20:10 10° SW 20:23:21 28° WNW 20:26:31 10° NNW
Meteor 1-12 Rocket 4.2 20:18:23 10° N 20:24:02 83° W 20:29:43 10° S
Cosmos 1674 Rocket 4.3 20:20:25 10° S 20:24:44 60° E 20:29:07 10° NNE
Cosmos 2285 Rocket 4.4 20:21:17 10° NNW 20:27:19 44° W 20:33:20 10° S
Meteor 1-13 Rocket 4.4 20:26:31 10° SSW 20:31:53 51° W 20:37:22 10° N
Cosmos 2278 Rocket 2.2 20:26:54 10° NNW 20:32:29 62° WSW 20:38:02 10° S
USA 305 4.3 20:29:16 10° NNW 20:33:14 38° NE 20:37:11 10° ESE
ALOS 3.1 20:30:20 10° N 20:34:22 30° WNW 20:38:24 10° SW
Cosmos 2221 Rocket 4.0 20:30:53 10° SSW 20:35:11 42° W 20:39:32 10° N
USA 306 4.1 20:33:59 10° NNW 20:38:02 42° NE 20:42:04 10° ESE
CZ-3 R/B 4.1 20:30:35 10° SSW 20:39:11 19° S 20:43:37 10° SE
GP-B 3.8 20:36:18 10° SSE 20:40:40 62° E 20:45:03 10° N
